EA7WL-13 Weather Reports


time (UTC)temp
C
wind
direction
speed
KPH
gust
KPH
rain 1hr
cm
rain 24hr
cm
rain mn
cm
humidity
%
barometer
mb
20260508133003 20 196 16.1 33.8 0.00 0.00 0.00 44 1014.0
20260508132503 20 170 16.1 33.8 0.00 0.00 0.00 45 1014.0
20260508132003 20 171 12.9 27.4 0.00 0.00 0.00 46 1013.9
20260508131503 20 185 11.3 24.1 0.00 0.00 0.00 44 1014.1
20260508131218 21 182 11.3 24.1 0.00 0.00 0.00 42 1014.1
20260508130717 20 186 12.9 24.1 0.00 0.00 0.00 44 1014.1
20260508130003 20 188 11.3 22.5 0.00 0.00 0.00 45 1014.0
20260508125503 19 190 12.9 27.4 0.00 0.00 0.00 46 1014.1
20260508125003 20 174 14.5 27.4 0.00 0.00 0.00 47 1014.1
20260508124503 19 184 14.5 25.7 0.00 0.00 0.00 46 1014.2
20260508124004 20 218 12.9 24.1 0.00 0.00 0.00 45 1014.2
20260508123503 19 215 11.3 22.5 0.00 0.00 0.00 45 1014.2
20260508123217 20 215 11.3 29.0 0.00 0.00 0.00 45 1014.2
20260508122718 20 191 12.9 29.0 0.00 0.00 0.00 45 1014.3
20260508122003 18 164 9.7 25.7 0.00 0.00 0.00 48 1014.4
20260508121718 20 167 9.7 25.7 0.00 0.00 0.00 47 1014.3
20260508121217 19 184 9.7 24.1 0.00 0.00 0.00 49 1014.5
20260508120503 18 205 9.7 25.7 0.00 0.00 0.00 49 1014.5
20260508120217 18 197 12.9 25.7 0.00 0.00 0.00 50 1014.4
20260508115503 18 180 12.9 25.7 0.00 0.00 0.00 52 1014.5
20260508115003 18 180 9.7 24.1 0.00 0.00 0.00 48 1014.5
20260508114503 19 197 11.3 24.1 0.00 0.00 0.00 48 1014.4
20260508114003 18 205 14.5 29.0 0.00 0.00 0.00 48 1014.4
20260508113718 18 219 12.9 29.0 0.00 0.00 0.00 49 1014.5
20260508113217 18 220 9.7 25.7 0.00 0.00 0.00 48 1014.5
20260508112503 17 218 11.3 24.1 0.00 0.00 0.00 51 1014.5
20260508112217 17 221 11.3 24.1 0.00 0.00 0.00 50 1014.7
20260508111503 18 169 8.0 22.5 0.00 0.00 0.00 52 1014.7
20260508111003 18 175 9.7 22.5 0.00 0.00 0.00 51 1014.6
20260508110503 18 205 11.3 22.5 0.00 0.00 0.00 50 1014.6
20260508110003 17 210 11.3 24.1 0.00 0.00 0.00 52 1014.6
20260508105503 17 179 11.3 25.7 0.00 0.00 0.00 54 1014.6
20260508105003 18 163 11.3 25.7 0.00 0.00 0.00 50 1014.8
20260508104503 18 175 11.3 24.1 0.00 0.00 0.00 52 1014.7
20260508104003 18 175 11.3 24.1 0.00 0.00 0.00 50 1014.6
20260508103503 17 179 14.5 27.4 0.00 0.00 0.00 52 1014.6
20260508103003 17 181 14.5 27.4 0.00 0.00 0.00 51 1014.7
20260508102503 17 171 12.9 25.7 0.00 0.00 0.00 52 1014.8
20260508102003 17 173 12.9 25.7 0.00 0.00 0.00 54 1014.8
20260508101503 17 172 12.9 30.6 0.00 0.00 0.00 53 1014.8
20260508101003 17 180 14.5 30.6 0.00 0.00 0.00 54 1014.9
20260508100503 17 177 14.5 25.7 0.00 0.00 0.00 54 1014.9
20260508100003 17 172 12.9 29.0 0.00 0.00 0.00 54 1015.1
20260508095503 17 171 14.5 29.0 0.00 0.00 0.00 55 1015.0
20260508095003 17 166 12.9 25.7 0.00 0.00 0.00 55 1015.0
20260508094503 17 170 11.3 24.1 0.00 0.00 0.00 55 1015.0
20260508094003 16 170 12.9 24.1 0.00 0.00 0.00 56 1015.2
20260508093503 16 173 9.7 22.5 0.00 0.00 0.00 57 1015.3
20260508093003 17 192 8.0 22.5 0.00 0.00 0.00 57 1015.2
20260508092503 16 192 11.3 24.1 0.00 0.00 0.00 59 1015.2
20260508092003 16 171 12.9 24.1 0.00 0.00 0.00 59 1015.1
20260508091717 16 164 12.9 24.1 0.00 0.00 0.00 58 1015.1
20260508091003 16 174 14.5 27.4 0.00 0.00 0.00 58 1015.0
20260508090503 16 180 14.5 27.4 0.00 0.00 0.00 59 1015.0
20260508090003 16 181 12.9 24.1 0.00 0.00 0.00 60 1015.1
20260508085503 15 181 11.3 22.5 0.00 0.00 0.00 61 1015.1
20260508085003 15 180 9.7 22.5 0.00 0.00 0.00 62 1014.9
20260508084503 15 181 8.0 17.7 0.00 0.00 0.00 62 1014.8
20260508084003 15 185 9.7 20.9 0.00 0.00 0.00 64 1014.9
20260508083503 15 193 9.7 20.9 0.00 0.00 0.00 64 1015.1
20260508083003 15 201 8.0 16.1 0.00 0.00 0.00 64 1014.9
20260508082717 15 200 8.0 14.5 0.00 0.00 0.00 64 1014.8
20260508082003 15 198 6.4 14.5 0.00 0.00 0.00 64 1014.9
20260508081504 14 199 6.4 16.1 0.00 0.00 0.00 66 1014.8
20260508081003 14 196 11.3 22.5 0.00 0.00 0.00 65 1014.7
20260508080503 14 209 9.7 22.5 0.00 0.00 0.00 66 1014.8
20260508080003 13 216 4.8 14.5 0.00 0.00 0.00 67 1014.8
20260508075503 13 243 3.2 12.9 0.00 0.00 0.00 69 1014.7
20260508075217 13 256 4.8 12.9 0.00 0.00 0.00 70 1014.8
20260508074503 13 301 6.4 11.3 0.00 0.00 0.00 71 1014.7
20260508074003 13 309 6.4 11.3 0.00 0.00 0.00 71 1014.7
20260508073503 12 306 6.4 11.3 0.00 0.00 0.00 72 1014.7
20260508073003 13 286 6.4 11.3 0.00 0.00 0.00 68 1014.7
20260508072503 13 279 6.4 11.3 0.00 0.00 0.00 68 1014.9
20260508072003 13 280 4.8 11.3 0.00 0.00 0.00 68 1014.7
20260508071503 13 278 4.8 6.4 0.00 0.00 0.00 68 1014.9
20260508071003 13 253 3.2 6.4 0.00 0.00 0.00 68 1014.6
20260508070718 13 246 1.6 4.8 0.00 0.00 0.00 67 1014.7
20260508070003 13 247 1.6 4.8 0.00 0.00 0.00 67 1014.5
20260508065503 13 256 1.6 4.8 0.00 0.00 0.00 68 1014.7
20260508065003 13 271 1.6 4.8 0.00 0.00 0.00 68 1014.7
20260508064503 13 263 0.0 3.2 0.00 0.00 0.00 68 1014.6
20260508064003 13 284 0.0 1.6 0.00 0.00 0.00 70 1014.4
20260508063503 12 303 0.0 4.8 0.00 0.00 0.00 73 1014.5
20260508063003 11 189 1.6 4.8 0.00 0.00 0.00 75 1014.6
20260508062503 11 187 1.6 3.2 0.00 0.00 0.00 75 1014.4
20260508062003 11 244 0.0 3.2 0.00 0.00 0.00 73 1014.4
20260508061503 11 169 1.6 3.2 0.00 0.00 0.00 75 1014.3
20260508061217 11 189 1.6 3.2 0.00 0.00 0.00 75 1014.5
20260508060503 11 276 3.2 4.8 0.00 0.00 0.00 74 1014.5
20260508060003 11 288 3.2 6.4 0.00 0.00 0.00 74 1014.4
20260508055503 11 301 1.6 6.4 0.00 0.00 0.00 74 1014.2
20260508055003 11 256 1.6 4.8 0.00 0.00 0.00 74 1014.2
20260508054503 11 260 1.6 4.8 0.00 0.00 0.00 74 1014.2
20260508054003 11 260 1.6 3.2 0.00 0.00 0.00 75 1013.9
20260508053503 11 317 1.6 6.4 0.00 0.00 0.00 75 1013.7
20260508053003 11 320 3.2 6.4 0.00 0.00 0.00 74 1013.8
20260508052503 11 305 1.6 6.4 0.00 0.00 0.00 75 1013.5
20260508052003 11 284 1.6 4.8 0.00 0.00 0.00 76 1013.4
20260508051503 11 272 1.6 6.4 0.00 0.00 0.00 76 1013.4
20260508051003 10 277 3.2 6.4 0.00 0.00 0.00 77 1013.4
20260508050503 10 257 1.6 6.4 0.00 0.00 0.00 79 1013.4
20260508050216 10 243 1.6 4.8 0.00 0.00 0.00 80 1013.4
20260508045503 10 201 0.0 1.6 0.00 0.00 0.00 78 1013.2
20260508045003 10 200 0.0 3.2 0.00 0.00 0.00 79 1013.5
20260508044503 10 170 0.0 3.2 0.00 0.00 0.00 80 1013.3
20260508044003 10 223 0.0 1.6 0.00 0.00 0.00 80 1013.2
20260508043503 10 249 0.0 1.6 0.00 0.00 0.00 80 1013.1
20260508043218 10 215 0.0 3.2 0.00 0.00 0.00 78 1013.1
20260508042503 10 124 1.6 3.2 0.00 0.00 0.00 79 1013.0
20260508042003 10 106 1.6 3.2 0.00 0.00 0.00 79 1013.2
20260508041504 10 166 0.0 3.2 0.00 0.00 0.00 78 1013.4
20260508041003 10 212 0.0 4.8 0.00 0.00 0.00 77 1013.7
20260508040503 10 241 1.6 4.8 0.00 0.00 0.00 77 1013.8
20260508040003 10 269 3.2 4.8 0.00 0.00 0.00 76 1013.6
20260508035503 10 263 1.6 4.8 0.00 0.00 0.00 76 1013.6
20260508035003 11 240 1.6 3.2 0.00 0.00 0.00 77 1013.8
20260508034503 11 306 1.6 4.8 0.00 0.00 0.00 74 1013.6
20260508034003 11 330 1.6 4.8 0.00 0.00 0.00 74 1013.6
20260508033503 10 9 1.6 4.8 0.00 0.00 0.00 77 1013.7
20260508033003 10 46 3.2 4.8 0.00 0.00 0.00 79 1013.7
20260508032503 11 54 1.6 4.8 0.00 0.00 0.00 77 1013.6
20260508032218 11 276 1.6 4.8 0.00 0.00 0.00 75 1013.9
20260508031717 11 244 1.6 3.2 0.00 0.00 0.00 75 1014.1
20260508031218 11 236 1.6 3.2 0.00 0.00 0.00 74 1014.0
20260508030503 11 201 0.0 3.2 0.00 0.00 0.00 75 1014.0
20260508030003 11 318 0.0 3.2 0.00 0.00 0.00 77 1014.1
20260508025503 10 167 0.0 3.2 0.00 0.00 0.00 78 1014.0
20260508025003 10 164 0.0 3.2 0.00 0.00 0.00 79 1014.0
20260508024503 10 155 1.6 3.2 0.00 0.00 0.00 80 1014.2
20260508024003 10 162 1.6 3.2 0.00 0.00 0.00 78 1014.1
20260508023503 10 227 0.0 1.6 0.00 0.00 0.00 77 1013.9
20260508023003 10 221 1.6 4.8 0.00 0.00 0.00 77 1013.8
20260508022719 10 229 1.6 4.8 0.00 0.00 0.00 77 1013.9
20260508022218 11 238 1.6 3.2 0.00 0.00 0.00 75 1013.9
20260508021503 10 233 1.6 3.2 0.00 0.00 0.00 80 1014.1
20260508021003 10 0 0.0 0.0 0.00 0.00 0.00 81 1013.9
20260508020503 10 192 0.0 1.6 0.00 0.00 0.00 81 1013.9
20260508020217 10 192 0.0 1.6 0.00 0.00 0.00 81 1013.7
20260508015718 10 203 0.0 1.6 0.00 0.00 0.00 80 1013.8
20260508015003 10 222 0.0 3.2 0.00 0.00 0.00 79 1013.9
20260508014503 10 223 0.0 3.2 0.00 0.00 0.00 78 1013.9
20260508014003 10 0 0.0 0.0 0.00 0.00 0.00 77 1013.7
20260508013503 10 207 0.0 1.6 0.00 0.00 0.00 77 1013.9
20260508013217 10 213 0.0 1.6 0.00 0.00 0.00 77 1014.3
20260508012718 10 202 0.0 3.2 0.00 0.00 0.00 77 1014.0
20260508012003 11 261 0.0 1.6 0.00 0.00 0.00 76 1014.1
20260508011503 11 259 0.0 1.6 0.00 0.00 0.00 75 1014.0
20260508011217 11 281 0.0 1.6 0.00 0.00 0.00 76 1014.1
20260508010503 11 103 1.6 3.2 0.00 0.00 0.00 76 1014.1
20260508010003 10 95 1.6 3.2 0.00 0.00 0.00 77 1014.3
20260508005503 11 186 0.0 1.6 0.00 0.00 0.00 76 1014.3
20260508005217 11 202 0.0 1.6 0.00 0.00 0.00 76 1014.4
20260508004503 11 235 1.6 4.8 0.00 0.00 0.00 75 1014.4
20260508004003 11 252 3.2 4.8 0.00 0.00 0.00 75 1014.6
20260508003503 11 262 1.6 4.8 0.00 0.00 0.00 73 1014.3
20260508003217 11 246 0.0 3.2 0.00 0.00 0.00 74 1014.2
20260508002503 11 215 0.0 3.2 0.00 0.00 0.00 74 1014.2
20260508002217 11 199 0.0 3.2 0.00 0.00 0.00 74 1014.2
20260508001503 11 184 1.6 4.8 0.00 0.00 0.00 72 1014.3
20260508001003 12 181 1.6 4.8 0.00 0.00 0.00 71 1014.4
20260508000503 11 174 1.6 4.8 0.00 0.00 0.00 71 1014.2
20260508000003 11 140 1.6 3.2 0.00 0.00 0.00 71 1014.1
20260507235503 11 149 1.6 4.8 0.00 0.00 0.00 72 1014.2
20260507235003 11 157 1.6 4.8 0.00 0.00 0.00 73 1014.4
20260507234717 11 152 1.6 4.8 0.00 0.00 0.00 74 1014.5
20260507234003 11 174 1.6 4.8 0.00 0.00 0.00 75 1014.8
20260507233503 11 166 1.6 4.8 0.00 0.00 0.00 74 1014.9
20260507233003 11 168 0.0 3.2 0.00 0.00 0.00 72 1015.0
20260507232503 11 168 1.6 4.8 0.00 0.00 0.00 72 1015.0
20260507232003 11 287 1.6 4.8 0.00 0.00 0.00 72 1015.2
20260507231503 11 188 1.6 3.2 0.00 0.00 0.00 73 1015.3
20260507231218 11 167 0.0 3.2 0.00 0.00 0.00 73 1015.2
20260507230503 11 150 0.0 4.8 0.00 0.00 0.00 73 1015.2
20260507230004 11 121 1.6 4.8 0.00 0.00 0.00 73 1015.3
20260507225503 11 81 0.0 3.2 0.00 0.00 0.00 72 1015.2
20260507225003 11 188 0.0 1.6 0.00 0.00 0.00 71 1015.2
20260507224503 11 0 0.0 0.0 0.00 0.00 0.00 70 1015.2
20260507224003 11 119 0.0 3.2 0.00 0.00 0.00 70 1015.3
20260507223503 11 65 1.6 3.2 0.00 0.00 0.00 70 1015.2
20260507223003 11 62 1.6 3.2 0.00 0.00 0.00 71 1015.2
20260507222503 11 189 0.0 1.6 0.00 0.00 0.00 72 1015.3
20260507222004 11 188 0.0 1.6 0.00 0.00 0.00 71 1015.5
20260507221503 11 185 0.0 3.2 0.00 0.00 0.00 69 1015.3
20260507221003 11 176 0.0 3.2 0.00 0.00 0.00 69 1015.4
20260507220503 11 185 0.0 3.2 0.00 0.00 0.00 71 1015.5
20260507220003 11 191 0.0 3.2 0.00 0.00 0.00 72 1015.4
20260507215717 11 196 0.0 3.2 0.00 0.00 0.00 71 1015.3
20260507215003 11 197 0.0 1.6 0.00 0.00 0.00 71 1015.2
20260507214503 11 189 0.0 1.6 0.00 0.00 0.00 70 1015.2
20260507214003 11 191 0.0 1.6 0.00 0.00 0.00 70 1015.2
20260507213503 12 209 0.0 3.2 0.00 0.00 0.00 69 1015.3
20260507213003 12 223 1.6 3.2 0.00 0.00 0.00 69 1015.3
20260507212503 12 193 1.6 3.2 0.00 0.00 0.00 66 1015.1
20260507212003 12 168 1.6 3.2 0.00 0.00 0.00 67 1015.2
20260507211503 12 188 0.0 3.2 0.00 0.00 0.00 68 1015.2
20260507211003 12 205 0.0 1.6 0.00 0.00 0.00 67 1015.0
20260507210503 12 207 0.0 1.6 0.00 0.00 0.00 67 1015.1
20260507210218 12 181 0.0 1.6 0.00 0.00 0.00 67 1015.0
20260507205503 12 179 0.0 3.2 0.00 0.00 0.00 67 1015.1
20260507205003 12 184 0.0 3.2 0.00 0.00 0.00 66 1014.8
20260507204503 13 0 0.0 0.0 0.00 0.00 0.00 64 1014.7
20260507204003 13 0 0.0 0.0 0.00 0.00 0.00 61 1014.7
20260507203503 13 207 0.0 1.6 0.00 0.00 0.00 62 1014.8
20260507203003 13 192 0.0 3.2 0.00 0.00 0.00 62 1014.8
20260507202503 13 189 1.6 3.2 0.00 0.00 0.00 62 1014.8
20260507202004 13 186 1.6 3.2 0.00 0.00 0.00 62 1014.7
20260507201718 13 185 1.6 3.2 0.00 0.00 0.00 62 1014.6
20260507201003 13 182 1.6 3.2 0.00 0.00 0.00 62 1014.7
20260507200718 13 183 1.6 1.6 0.00 0.00 0.00 62 1014.6
20260507200003 14 192 0.0 1.6 0.00 0.00 0.00 62 1014.6
20260507195503 14 0 0.0 0.0 0.00 0.00 0.00 61 1014.6
20260507195217 14 200 0.0 1.6 0.00 0.00 0.00 61 1014.6
20260507194503 14 205 1.6 3.2 0.00 0.00 0.00 62 1014.5
20260507194003 15 199 3.2 4.8 0.00 0.00 0.00 59 1014.4
20260507193503 15 203 3.2 6.4 0.00 0.00 0.00 59 1014.4
20260507193217 15 205 4.8 12.9 0.00 0.00 0.00 57 1014.4
20260507192718 15 210 6.4 12.9 0.00 0.00 0.00 56 1014.4
20260507192003 15 225 8.0 14.5 0.00 0.00 0.00 55 1014.3
20260507191718 15 221 6.4 14.5 0.00 0.00 0.00 55 1014.3
20260507191003 15 220 6.4 12.9 0.00 0.00 0.00 55 1014.2
20260507190503 16 218 6.4 12.9 0.00 0.00 0.00 54 1013.9
20260507190004 16 213 8.0 12.9 0.00 0.00 0.00 54 1013.9
20260507185503 16 221 8.0 11.3 0.00 0.00 0.00 54 1013.9
20260507185003 16 240 8.0 16.1 0.00 0.00 0.00 54 1013.9
20260507184503 16 250 8.0 16.1 0.00 0.00 0.00 54 1013.8
20260507184003 16 255 8.0 16.1 0.00 0.00 0.00 55 1013.7
20260507183718 16 258 9.7 16.1 0.00 0.00 0.00 54 1013.7
20260507183003 16 244 9.7 16.1 0.00 0.00 0.00 54 1013.5
20260507182503 16 230 11.3 22.5 0.00 0.00 0.00 54 1013.7
20260507182004 16 241 11.3 22.5 0.00 0.00 0.00 54 1013.5
20260507181503 17 246 9.7 20.9 0.00 0.00 0.00 53 1013.4
20260507181003 17 239 8.0 20.9 0.00 0.00 0.00 53 1013.2
20260507180717 17 236 4.8 20.9 0.00 0.00 0.00 53 1013.3
20260507180003 17 72 1.6 6.4 0.00 0.00 0.00 56 1013.2
20260507175503 17 353 3.2 9.7 0.00 0.00 0.00 58 1013.1
20260507175004 17 251 3.2 9.7 0.00 0.00 0.00 56 1013.2
20260507174503 17 242 4.8 12.9 0.00 0.00 0.00 55 1013.1
20260507174003 17 235 6.4 12.9 0.00 0.00 0.00 56 1013.2
20260507173717 17 246 8.0 16.1 0.00 0.00 0.00 55 1013.1
20260507173004 17 272 9.7 16.1 0.00 0.00 0.00 58 1013.0
20260507172503 17 249 8.0 16.1 0.00 0.00 0.00 58 1013.0
20260507172218 17 231 9.7 17.7 0.00 0.00 0.00 58 1013.1
20260507171503 17 244 9.7 20.9 0.00 0.00 0.00 58 1012.8
20260507171003 17 262 8.0 16.1 0.00 0.00 0.00 57 1012.8
20260507170503 18 271 9.7 17.7 0.00 0.00 0.00 56 1012.7
20260507170003 18 284 9.7 17.7 0.00 0.00 0.00 56 1012.6
20260507165503 18 286 8.0 17.7 0.00 0.00 0.00 55 1012.6
20260507165003 18 261 9.7 22.5 0.00 0.00 0.00 53 1012.6
20260507164503 18 257 11.3 22.5 0.00 0.00 0.00 55 1012.6
20260507164003 17 272 8.0 17.7 0.00 0.00 0.00 57 1012.6
20260507163503 18 276 4.8 16.1 0.00 0.00 0.00 56 1012.7
20260507163003 18 267 4.8 12.9 0.00 0.00 0.00 55 1012.4
20260507162503 17 284 6.4 14.5 0.00 0.00 0.00 55 1012.5
20260507162218 17 293 8.0 16.1 0.00 0.00 0.00 56 1012.4
20260507161503 17 289 9.7 17.7 0.00 0.00 0.00 56 1012.7
20260507161003 17 275 8.0 17.7 0.00 0.00 0.00 56 1012.7
20260507160717 18 271 8.0 17.7 0.00 0.00 0.00 56 1012.6
20260507160003 18 236 8.0 16.1 0.00 0.00 0.00 54 1012.5
20260507155503 18 255 9.7 16.1 0.00 0.00 0.00 55 1012.5
20260507155003 18 269 11.3 17.7 0.00 0.00 0.00 55 1012.6
20260507154503 18 258 11.3 20.9 0.00 0.00 0.00 55 1012.4
20260507154004 18 249 11.3 20.9 0.00 0.00 0.00 53 1012.5
20260507153504 18 250 6.4 16.1 0.00 0.00 0.00 54 1012.5
20260507153003 18 290 1.6 6.4 0.00 0.00 0.00 52 1012.5
20260507152718 18 301 3.2 12.9 0.00 0.00 0.00 52 1012.4
20260507152003 17 306 8.0 22.5 0.00 0.00 0.00 55 1012.5
20260507151503 17 295 9.7 22.5 0.00 0.00 0.00 55 1012.6
20260507151003 17 287 9.7 17.7 0.00 0.00 0.00 55 1012.7
20260507150503 17 282 9.7 20.9 0.00 0.00 0.00 54 1012.7
20260507150003 18 266 9.7 20.9 0.00 0.00 0.00 54 1012.6
20260507145503 18 261 9.7 14.5 0.00 0.00 0.00 54 1012.6
20260507145003 18 265 9.7 16.1 0.00 0.00 0.00 54 1012.7
20260507144503 18 271 8.0 16.1 0.00 0.00 0.00 53 1012.6
20260507144003 19 286 8.0 14.5 0.00 0.00 0.00 50 1012.7
20260507143503 18 276 9.7 16.1 0.00 0.00 0.00 53 1012.8
20260507143003 18 277 8.0 16.1 0.00 0.00 0.00 53 1012.8
20260507142504 18 296 6.4 12.9 0.00 0.00 0.00 51 1012.7
20260507142003 18 293 8.0 16.1 0.00 0.00 0.00 51 1012.8
20260507141503 18 279 9.7 16.1 0.00 0.00 0.00 50 1013.0
20260507141003 18 274 9.7 17.7 0.00 0.00 0.00 51 1012.9
20260507140718 18 276 9.7 17.7 0.00 0.00 0.00 51 1012.8
20260507140003 19 265 9.7 17.7 0.00 0.00 0.00 49 1012.9
20260507135503 20 236 9.7 17.7 0.00 0.00 0.00 41 1013.0
20260507135217 20 234 9.7 17.7 0.00 0.00 0.00 37 1012.9
20260507134718 21 252 8.0 17.7 0.00 0.00 0.00 35 1013.0
20260507134217 21 287 6.4 14.5 0.00 0.00 0.00 43 1013.0
20260507133503 21 238 8.0 17.7 0.00 0.00 0.00 30 1012.9
20260507133217 20 221 8.0 17.7 0.00 0.00 0.00 32 1012.9